Regional Weather Roundup
Issued by NWS Charleston, WV

Home | Current Version | Previous Version | Text Only | Print | Product List | Glossary Off
Versions: 1 2 3 4 5 6 7 8 9 10 11 12 13 14 15 16 17 18 19 20 21 22 23 24 25 26 27 28

000
ASUS41 KRLX 271310
RWRRLX
West Virginia Regional Weather Roundup
National Weather Service Charleston WV
900 AM EDT FRI MAY 27 2016

Note: "fair" indicates few or no clouds below 12,000 feet with no
significant weather and/or obstructions to visibility.

WVZ003-271400-
Northern Panhandle of West Virginia

CITY           SKY/WX    TMP DP  RH WIND       PRES   REMARKS
WHEELING         N/A     71  63  75 SW6       30.09R
$$

WVZ009-271400-
Northwest West Virginia

CITY           SKY/WX    TMP DP  RH WIND       PRES   REMARKS
PARKERSBURG      N/A     73  65  75 S7        30.11S
$$

WVZ006-271400-
Western West Virginia

CITY           SKY/WX    TMP DP  RH WIND       PRES   REMARKS
HUNTINGTON     CLOUDY    68  66  93 SE5       30.08F
$$

WVZ015-271400-
West Central West Virginia

CITY           SKY/WX    TMP DP  RH WIND       PRES   REMARKS
CHARLESTON       N/A     72  63  73 CALM      30.10R
$$

WVZ022-031-271400-
North Central West Virginia

CITY           SKY/WX    TMP DP  RH WIND       PRES   REMARKS
CLARKSBURG       N/A     73  63  70 S3        30.11S
MORGANTOWN       N/A     75  60  59 VRB7      30.12R
$$

WVZ025-035-042-045-271400-
Southern West Virginia

CITY           SKY/WX    TMP DP  RH WIND       PRES   REMARKS
BECKLEY          N/A     70  56  61 SW5       30.18R
LOGAN            N/A     72  63  73 CALM      30.13S
BLUEFIELD        N/A     71  56  58 W5        30.21R
LEWISBURG        N/A     62  61  94 CALM      30.19R
$$

WVZ047-271400-
Northern Mountains of West Virginia

CITY           SKY/WX    TMP DP  RH WIND       PRES   REMARKS
ELKINS           N/A     68  60  75 SW5       30.17R
$$

WVZ052-271400-
Eastern Panhandle of West Virginia

CITY           SKY/WX    TMP DP  RH WIND       PRES   REMARKS
MARTINSBURG      N/A     74  65  73 CALM      30.09R
PETERSBURG       N/A     68  65  88 CALM      30.13S
$$




USA.gov is the U.S. government's official web portal to all federal, state and local government web resources and services.